HST 1 20580U 90037B 26129.80266005 .00005313 00000+0 16829-3 0 9991 2 20580 28.4760 342.8246 0002189 75.4822 284.6017 15.30338732782685 POLAR 1 23802U 96013A 26129.52569769 .00000082 00000+0 00000+0 0 9991 2 23802 79.8145 227.5015 6431913 210.4085 87.5032 1.29845961144357 SWAS 1 25560U 98071A 26129.97850728 .00002001 00000+0 13155-3 0 9999 2 25560 69.8967 326.0324 0008005 296.8888 63.1458 15.09353768491500 CXO 1 25867U 99040B 26132.35181578 .00000778 00000+0 00000+0 0 9992 2 25867 55.5870 117.7083 7898886 310.4213 0.0914 0.37804510 17184 XMM-NEWTON 1 25989U 99066A 26131.44955799 .00000109 00000+0 00000+0 0 9996 2 25989 64.6811 283.4559 4686766 65.5547 0.1364 0.50125831 22814 TERRA 1 25994U 99068A 26130.13903302 .00000247 00000+0 59359-4 0 9991 2 25994 97.9484 181.1884 0002342 25.4936 357.2362 14.61072283404058 CLUSTER II-FM7 (SAMBA) 1 26410U 00041A 26130.20719946 .00003007 00000+0 00000+0 0 9996 2 26410 149.7574 44.0320 9007788 260.7661 0.4598 0.44818912 20131 CLUSTER II-FM8 (TANGO) 1 26464U 00045B 26130.14160082 .00003120 00000+0 00000+0 0 9999 2 26464 150.0346 45.1293 9013438 261.7017 0.4740 0.44409144 20129 ODIN 1 26702U 01007A 26130.10817970 .00075871 00000+0 74813-3 0 9993 2 26702 97.3936 168.9158 0001497 203.1908 156.9284 15.65703950383424 TIMED 1 26998U 01055B 26130.20562260 .00000851 00000+0 81028-4 0 9996 2 26998 74.0671 311.4900 0001101 189.1634 170.9531 14.95200586325145 CORIOLIS 1 27640U 03001A 26130.00501698 .00000076 00000+0 56493-4 0 9997 2 27640 98.7138 137.4718 0013314 327.2464 32.7885 14.19934167208804 SORCE 1 27651U 03004A 26130.01516948 .00001881 00000+0 14618-3 0 9994 2 27651 39.9895 119.4248 0016429 141.8879 218.3080 15.03499684266156 MOST 1 27843U 03031D 26129.98576926 .00000043 00000+0 39633-4 0 9997 2 27843 98.7056 138.2437 0009979 9.7235 350.4133 14.21314367185284 SCISAT 1 1 27858U 03036A 26129.80072813 .00000461 00000+0 63584-4 0 9991 2 27858 73.9302 247.6063 0008190 313.8461 46.2037 14.81406804225768 SWIFT 1 28485U 04047A 26130.04102772 .00034287 00000+0 32662-3 0 9992 2 28485 20.5520 118.3120 0002880 149.4991 210.5622 15.64824186180871 HINODE (SOLAR-B) 1 29479U 06041A 26130.03080617 .00000488 00000+0 92308-4 0 9994 2 29479 98.0567 146.7447 0018604 52.4972 307.7921 14.68567327 49279 SHIJIAN-6 02A (SJ-6 02A) 1 29505U 06046A 26130.15639509 .00003646 00000+0 19070-3 0 9995 2 29505 97.6393 170.9448 0001288 265.5343 94.5743 15.16507160 66501 SHIJIAN-6 02B (SJ-6 02B) 1 29506U 06046B 26130.22275868 .00001497 00000+0 12106-3 0 9993 2 29506 97.7155 159.5176 0011363 184.9122 175.1992 15.01267245 65045 FGRST (GLAST) 1 33053U 08029A 26129.26611076 .00002092 00000+0 71004-4 0 9990 2 33053 25.5813 114.6804 0007922 224.9265 135.0632 15.23732551989891 SDO 1 36395U 10005A 26129.42960909 -.00000047 00000+0 00000+0 0 9991 2 36395 34.5720 86.9282 0000919 38.0963 155.0760 1.00272454 59678 CRYOSAT 2 1 36508U 10013A 26130.17541257 .00000089 00000+0 21322-4 0 9991 2 36508 92.0311 268.0715 0002634 87.8192 272.3317 14.51897762852560 X-SAT 1 37389U 11015C 26130.17405580 .00000206 00000+0 10511-3 0 9998 2 37389 98.3498 109.0145 0015312 93.7287 266.5644 14.25195275782260 GCOM-W1 (SHIZUKU) 1 38337U 12025A 26130.11724632 .00000336 00000+0 84564-4 0 9994 2 38337 98.2005 71.2546 0001515 101.0748 268.8411 14.57088202743492 NUSTAR 1 38358U 12031A 26130.16668980 .00013394 00000+0 77939-3 0 9997 2 38358 6.0286 319.2565 0009507 263.8309 131.1806 15.08444012 1307 NEOSSAT 1 39089U 13009D 26130.09084090 .00000107 00000+0 51790-4 0 9997 2 39089 98.4173 311.0311 0011070 6.6682 353.4649 14.35813106691271 BRITE-AUSTRIA 1 39091U 13009F 26130.03873477 .00000119 00000+0 55025-4 0 9997 2 39091 98.3988 310.4206 0010128 1.2954 358.8257 14.36526638691578 IRIS 1 39197U 13033A 26130.11615341 .00000751 00000+0 92206-4 0 9998 2 39197 97.9357 329.5101 0025902 83.9803 276.4363 14.85806146694723 HISAKI (SPRINT-A) 1 39253U 13049A 26130.19987271 .00000112 00000+0 67156-4 0 9997 2 39253 29.7201 53.1362 0136613 68.9669 292.5455 13.55539784626263 CASSIOPE 1 39265U 13055A 26130.20237411 .00020368 -59973-6 23270-3 0 9997 2 39265 80.9135 112.7367 0301375 189.7856 169.7431 15.22468185661885 STSAT-3 1 39422U 13066G 26130.15538726 .00002006 00000+0 15540-3 0 9990 2 39422 97.6168 100.6828 0010166 150.2884 209.8920 15.02522399678498 SWARM B 1 39451U 13067A 26130.15994425 .00002222 00000+0 79305-4 0 9995 2 39451 87.7464 353.8679 0002702 100.2372 259.9182 15.28326983677437 SWARM A 1 39452U 13067B 26130.14151307 .00007825 00000+0 13809-3 0 9999 2 39452 87.3322 70.3610 0003511 87.2947 272.8716 15.50175427700359 SWARM C 1 39453U 13067C 26130.14143756 .00007788 00000+0 13743-3 0 9994 2 39453 87.3323 68.9424 0003519 87.0863 273.0800 15.50177296700319 BRITE-CA1 (TORONTO) 1 40020U 14033L 26130.19219956 .00000537 00000+0 88217-4 0 9995 2 40020 97.9684 259.8338 0079481 39.4136 321.2817 14.72624452636628 OCO 2 1 40059U 14035A 26130.11209052 .00000289 00000+0 74297-4 0 9994 2 40059 98.2001 71.9904 0001338 88.4080 271.7271 14.57079072630506 BRITE-PL2 (HEWELIUSZ) 1 40119U 14049B 26130.21020639 .00001160 00000+0 11298-3 0 9999 2 40119 97.9055 241.9308 0012908 232.0210 127.9845 14.94451944635778 MMS 1 1 40482U 15011A 26130.16668980 -.00000267 00000+0 00000+0 0 9996 2 40482 71.6717 349.3017 8362872 166.5422 20.5949 0.28284495 1392 MMS 2 1 40483U 15011B 26130.16668980 -.00000268 00000+0 00000+0 0 9998 2 40483 71.6719 349.3039 8363865 166.5489 20.5774 0.28280839 1399 MMS 3 1 40484U 15011C 26130.16668980 -.00000267 00000+0 00000+0 0 9998 2 40484 71.6747 349.3085 8363087 166.5433 20.5776 0.28280792 1397 MMS 4 1 40485U 15011D 26130.16668980 -.00000268 00000+0 00000+0 0 9990 2 40485 71.6715 349.3041 8362655 166.5509 20.5654 0.28280722 1397 ASTROSAT 1 40930U 15052A 26130.01374999 .00001330 00000+0 80390-4 0 9993 2 40930 5.9973 70.0971 0008319 213.0571 146.9037 14.82440518574154 DAMPE 1 41173U 15078A 26130.18825067 .00001270 00000+0 45400-4 0 9992 2 41173 97.4573 135.4712 0011024 203.6605 156.4130 15.30690585578738 PISAT 1 41784U 16059B 26129.99842411 .00000693 00000+0 12591-3 0 9991 2 41784 97.8183 132.0943 0028230 330.2878 29.6723 14.68915450514136 HXMT (HUIYAN) 1 42758U 17034A 26130.17537821 .00003259 00000+0 16627-3 0 9990 2 42758 43.0161 34.6421 0032979 264.3864 95.3223 15.18129969491881 FLYING LAPTOP 1 42831U 17042G 26130.18723082 .00002484 00000+0 19910-3 0 9995 2 42831 97.4524 287.2284 0017675 252.4960 107.4333 15.00895264480753 ZHANGHENG 1-01 (CSES-1) 1 43194U 18015C 26130.17502601 .00004710 00000+0 21574-3 0 9993 2 43194 97.6847 295.0835 0017194 39.9366 320.3130 15.20872715458865 SALSAT 1 46495U 20068K 26129.93875273 .00005920 00000+0 21129-3 0 9991 2 46495 97.8863 130.6938 0011619 79.8924 280.3625 15.29235376309515 IXPE 1 49954U 21121A 26130.16668980 .00009899 00000+0 53728-3 0 9996 2 49954 0.2302 245.4457 0007039 226.3115 185.4013 15.09907073 5570